154P/Brewington (2024)

Japanese version
Home page
Updated on September 4, 2024

---------------------------------------------------------------------

* Profile

* Pictures

* Orbital Elements

Epoch 2024 Mar. 31.0 TT = JDT 2460400.5
T 2024 June 13.28961 TT                                 Rudenko
q   1.5529468            (2000.0)            P               Q
n   0.09381091     Peri.   47.96007     +0.84717933     -0.52388660
a   4.7969715      Node   343.01700     +0.35210215     +0.67831532
e   0.6762652      Incl.   17.63474     +0.39788348     +0.51520011
P  10.5
>From 2864 observations 2003 Feb. 1-2024 June 19, mean residual 0".6.
     Nongravitational parameters A1 = +3.53, A2 = -0.0287.

* Finding Charts

* Magnitudes Graph

        m1 =  0.0 + 5 log d + 50   log r  [   ,105]  (             - 2024 Sept.26)
        m1 = 11.6 + 5 log d + 10.7 log r  [105,   ]  (2024 Sept.26 -             )

---------------------------------------------------------------------

The orbital elements are published on M.P.E.C. 2024-M41.
The charts are made with StellaNavigator Ver.10 (AstroArts).
The magnitudes graphs are made with Comet for Windows.

---------------------------------------------------------------------

Copyright(C) Seiichi Yoshida (comet@aerith.net). All rights reserved.